| time (UTC) | temp C | wind direction | speed KPH | gust KPH | rain 1hr cm | rain 24hr cm | rain mn cm | humidity % | barometer mb |
| 20260507205022 | 11 | 112 | 0.0 | 0.0 | 0.00 | 0.00 | 0.20 | 82 | 1005.8 |
| 20260507201052 | 11 | 158 | 0.0 | 0.0 | 0.00 | 0.00 | 0.20 | 84 | 1005.5 |
| 20260507193052 | 12 | 248 | 0.0 | 0.0 | 0.00 | 0.00 | 0.20 | 82 | 1005.4 |
| 20260507190023 | 12 | 248 | 0.0 | 0.0 | 0.00 | 0.00 | 0.20 | 79 | 1005.2 |
| 20260507182122 | 12 | 248 | 0.0 | 0.0 | 0.00 | 0.00 | 0.20 | 78 | 1005.2 |
| 20260507175052 | 12 | 248 | 0.0 | 0.0 | 0.00 | 0.00 | 0.20 | 78 | 1005.3 |
| 20260507172022 | 13 | 248 | 0.0 | 0.0 | 0.00 | 0.00 | 0.20 | 80 | 1005.0 |
| 20260507164052 | 13 | 248 | 0.0 | 0.0 | 0.00 | 0.00 | 0.20 | 79 | 1004.8 |
| 20260507161022 | 14 | 248 | 0.0 | 0.0 | 0.00 | 0.00 | 0.20 | 76 | 1004.9 |
| 20260507154022 | 14 | 248 | 0.0 | 0.0 | 0.00 | 0.00 | 0.20 | 75 | 1004.8 |
| 20260507150122 | 15 | 248 | 0.0 | 0.0 | 0.00 | 0.00 | 0.20 | 70 | 1005.0 |
| 20260507143052 | 16 | 292 | 0.0 | 0.0 | 0.00 | 0.00 | 0.20 | 65 | 1004.8 |
| 20260507135052 | 16 | 90 | 0.0 | 0.0 | 0.00 | 0.00 | 0.20 | 67 | 1004.7 |
| 20260507132022 | 14 | 180 | 1.6 | 1.6 | 0.00 | 0.00 | 0.20 | 68 | 1005.0 |
| 20260507124053 | 15 | 158 | 8.0 | 8.0 | 0.00 | 0.00 | 0.20 | 62 | 1005.2 |
| 20260507121052 | 15 | 202 | 0.0 | 0.0 | 0.00 | 0.00 | 0.20 | 63 | 1005.3 |
| 20260507113052 | 15 | 202 | 1.6 | 1.6 | 0.00 | 0.00 | 0.20 | 61 | 1005.3 |
| 20260507110022 | 14 | 158 | 1.6 | 1.6 | 0.00 | 0.00 | 0.20 | 62 | 1004.9 |
| 20260507103022 | 13 | 90 | 0.0 | 0.0 | 0.00 | 0.00 | 0.20 | 67 | 1005.5 |
| 20260507095052 | 12 | 45 | 3.2 | 3.2 | 0.00 | 0.00 | 0.20 | 67 | 1005.2 |
| 20260507091052 | 11 | 158 | 0.0 | 0.0 | 0.00 | 0.00 | 0.20 | 64 | 1005.1 |
| 20260507084027 | 11 | 158 | 3.2 | 3.2 | 0.00 | 0.00 | 0.20 | 64 | 1005.0 |
| 20260507081024 | 10 | 112 | 4.8 | 4.8 | 0.00 | 0.00 | 0.20 | 65 | 1005.1 |
| 20260507022322 | 9 | 225 | 3.2 | 3.2 | 0.05 | 0.00 | 0.08 | 88 | 1004.3 |
| 20260507014322 | 11 | 158 | 1.6 | 1.6 | 0.00 | 0.00 | 0.00 | 75 | 1004.2 |
| 20260507010322 | 12 | 158 | 0.0 | 0.0 | 0.00 | 0.00 | 0.00 | 68 | 1003.8 |
| 20260507002352 | 12 | 158 | 0.0 | 0.0 | 0.00 | 0.00 | 0.00 | 70 | 1003.8 |
| 20260506235322 | 12 | 68 | 0.0 | 0.0 | 0.00 | 0.00 | 0.00 | 70 | 1003.9 |
| 20260506231322 | 12 | 68 | 1.6 | 1.6 | 0.00 | 0.00 | 0.00 | 68 | 1003.6 |
| 20260506223322 | 12 | 158 | 6.4 | 6.4 | 0.00 | 0.00 | 0.00 | 68 | 1003.8 |
| 20260506215322 | 13 | 90 | 4.8 | 4.8 | 0.00 | 0.00 | 0.00 | 67 | 1002.9 |
| 20260506211322 | 13 | 248 | 3.2 | 3.2 | 0.00 | 0.00 | 0.00 | 66 | 1003.0 |